Flood From: 17-02-2018 16:00 Until: 18-02-2018 16:00 warning for: Flood Level: Yellow info button

Although rather usual in this region, locally or potentially dangerous phenomena are expected. (such as local winds, summer thunderstorms, rising streams or high waves) Be aware and pay attention to the latest weather updates, especially if you carry out activities exposed to weather or close to a stream or shoreline. 


Meteo18 Weather Cam more information Meteo18 Weather Cam


Thunder radar more information blitzortung!


Rain radar more information rain snow radar


Visit our other weather sites:

Template documentation
and downloads

And another site



Weather Underground History page Text

Daily Summary for January 18, 2018 Units:  English    Metric   Both
« Previous Day
Next Day »
Daily Weekly Monthly Yearly Custom
  High: Low: Average:
Temperature: TemperatureC °F 5.3 °F 8.3 °F
Dew Point: DewpointC °F 3.5 °F 7.4 °F
Humidity: Humidity % 85 % 93 %
Wind Speed: WindSpeedKMH mph 3.2 mph 19.4 mph
Wind Gust: WindSpeedGustKMH mph - -
Wind:- - WSW
Pressure: PressurehPa in 1010.0 in -
Precipitation: 9.4 in    
Historical Graphs
 
 
Tabular Data for January 18, 2018
Time Temperature Dew Point Pressure Wind Wind Speed Wind Gust Humidity Rainfall Rate (Hourly)
TemperatureC °F DewpointC °F PressurehPa in Calm     Humidity % HourlyPrecipMM in
00:01 5.3 °F 3.5 °F 1019.2 in WSW 9.7 mph 17.7 mph 88 % 0.0 in
00:07 5.4 °F 3.6 °F 1019.2 in SW 19.5 mph 20.9 mph 88 % 0.0 in
00:13 5.4 °F 3.6 °F 1018.8 in SSW 20.9 mph 25.7 mph 88 % 0.0 in
00:19 5.4 °F 3.6 °F 1018.8 in WSW 11.1 mph 20.9 mph 88 % 0.0 in
00:25 5.4 °F 3.6 °F 1018.5 in SW 13.0 mph 29.0 mph 88 % 0.0 in
00:31 5.4 °F 3.6 °F 1018.5 in SW 9.7 mph 19.3 mph 88 % 0.0 in
00:37 5.5 °F 3.8 °F 1018.5 in SW 14.3 mph 25.7 mph 89 % 0.0 in
00:43 5.6 °F 3.8 °F 1018.8 in WSW 11.1 mph 14.5 mph 88 % 0.0 in
00:49 5.6 °F 3.8 °F 1018.8 in SW 9.7 mph 24.1 mph 88 % 0.0 in
00:55 5.6 °F 3.9 °F 1018.5 in WSW 7.9 mph 19.3 mph 89 % 0.0 in
01:01 5.6 °F 3.9 °F 1018.5 in WSW 14.3 mph 24.1 mph 89 % 0.0 in
01:07 5.6 °F 3.9 °F 1018.2 in WSW 13.0 mph 14.5 mph 89 % 0.0 in
01:13 5.6 °F 3.9 °F 1018.2 in SW 3.2 mph 14.5 mph 89 % 0.0 in
01:19 5.5 °F 3.8 °F 1017.8 in SW 9.7 mph 12.9 mph 89 % 0.0 in
01:25 5.4 °F 3.9 °F 1017.8 in SW 14.3 mph 17.7 mph 90 % 0.0 in
01:31 5.4 °F 3.9 °F 1017.8 in SW 14.3 mph 14.5 mph 90 % 0.0 in
01:37 5.5 °F 4.0 °F 1017.8 in SW 13.0 mph 19.3 mph 90 % 0.0 in
01:43 5.6 °F 4.1 °F 1017.8 in SW 9.7 mph 19.3 mph 90 % 0.0 in
01:49 5.6 °F 4.1 °F 1017.5 in SW 11.1 mph 20.9 mph 90 % 0.0 in
01:55 5.6 °F 4.1 °F 1017.2 in SW 16.3 mph 17.7 mph 90 % 0.0 in
02:01 5.6 °F 4.1 °F 1016.8 in SW 16.3 mph 22.5 mph 90 % 0.0 in
02:07 5.6 °F 4.2 °F 1016.8 in SSW 16.3 mph 25.7 mph 91 % 0.0 in
02:13 5.7 °F 4.3 °F 1016.8 in SW 14.3 mph 25.7 mph 91 % 0.0 in
02:19 5.7 °F 4.3 °F 1016.8 in SW 19.5 mph 24.1 mph 91 % 0.0 in
02:25 5.7 °F 4.3 °F 1016.8 in SW 14.3 mph 20.9 mph 91 % 0.0 in
02:31 5.7 °F 4.5 °F 1016.8 in SSW 9.7 mph 17.7 mph 92 % 0.0 in
02:37 5.7 °F 4.5 °F 1016.5 in SSW 7.9 mph 29.0 mph 92 % 0.0 in
02:43 5.8 °F 4.6 °F 1016.5 in SW 9.7 mph 25.7 mph 92 % 0.0 in
02:49 5.8 °F 4.6 °F 1016.1 in SW 22.7 mph 27.4 mph 92 % 0.0 in
02:55 5.8 °F 4.8 °F 1016.1 in South 17.7 mph 35.4 mph 93 % 0.0 in
03:01 5.9 °F 4.9 °F 1016.1 in SW 19.5 mph 29.0 mph 93 % 0.0 in
03:07 5.9 °F 4.9 °F 1015.8 in SW 27.4 mph 30.6 mph 93 % 0.0 in
03:13 5.9 °F 4.9 °F 1015.8 in WSW 17.7 mph 30.6 mph 93 % 0.0 in
03:19 5.9 °F 5.0 °F 1015.5 in SW 17.7 mph 27.4 mph 94 % 0.0 in
03:25 5.9 °F 5.0 °F 1015.8 in SW 30.6 mph 32.2 mph 94 % 0.0 in
03:31 6.0 °F 5.1 °F 1015.5 in SW 16.3 mph 24.1 mph 94 % 0.0 in
03:37 6.1 °F 5.2 °F 1015.8 in WSW 9.7 mph 25.7 mph 94 % 0.0 in
03:43 6.1 °F 5.2 °F 1015.5 in SW 22.7 mph 30.6 mph 94 % 0.0 in
03:49 6.1 °F 5.2 °F 1015.5 in SW 17.7 mph 24.1 mph 94 % 0.0 in
03:55 6.1 °F 5.2 °F 1015.1 in SSW 9.7 mph 33.8 mph 94 % 0.3 in
04:01 6.1 °F 5.2 °F 1015.1 in SSW 16.3 mph 25.7 mph 94 % 0.3 in
04:07 6.2 °F 5.5 °F 1014.8 in SW 20.9 mph 29.0 mph 95 % 0.3 in
04:13 6.2 °F 5.5 °F 1014.8 in SW 20.9 mph 27.4 mph 95 % 0.3 in
04:19 6.2 °F 5.5 °F 1014.8 in SSW 16.3 mph 24.1 mph 95 % 0.3 in
04:25 6.3 °F 5.6 °F 1014.8 in SW 17.7 mph 33.8 mph 95 % 0.3 in
04:31 6.3 °F 5.6 °F 1014.4 in SW 20.9 mph 27.4 mph 95 % 0.3 in
04:37 6.3 °F 5.6 °F 1014.4 in SSW 14.3 mph 29.0 mph 95 % 0.5 in
04:43 6.3 °F 5.6 °F 1014.4 in WSW 30.6 mph 35.4 mph 95 % 0.5 in
04:49 6.4 °F 5.7 °F 1014.4 in SW 17.7 mph 32.2 mph 95 % 0.5 in
04:55 6.4 °F 5.7 °F 1014.1 in SW 11.1 mph 29.0 mph 95 % 0.3 in
05:01 6.4 °F 5.7 °F 1014.4 in SSW 6.4 mph 29.0 mph 95 % 0.3 in
05:07 6.4 °F 5.7 °F 1014.1 in SW 22.7 mph 25.7 mph 95 % 0.3 in
05:13 6.4 °F 5.7 °F 1014.1 in SW 19.5 mph 30.6 mph 95 % 0.3 in
05:19 6.4 °F 5.7 °F 1014.1 in SW 28.8 mph 32.2 mph 95 % 0.5 in
05:25 6.4 °F 5.7 °F 1013.8 in WSW 11.1 mph 29.0 mph 95 % 0.5 in
05:31 6.4 °F 5.7 °F 1013.8 in SW 20.9 mph 24.1 mph 95 % 0.5 in
05:37 6.5 °F 5.9 °F 1013.8 in WSW 16.3 mph 27.4 mph 96 % 0.3 in
05:43 6.6 °F 5.9 °F 1013.8 in SW 19.5 mph 32.2 mph 95 % 0.3 in
05:49 6.7 °F 6.0 °F 1013.8 in WSW 17.7 mph 35.4 mph 95 % 0.3 in
05:55 6.8 °F 6.1 °F 1013.8 in SSW 14.3 mph 29.0 mph 95 % 0.5 in
06:01 6.9 °F 6.2 °F 1013.8 in WSW 27.4 mph 38.6 mph 95 % 0.5 in
06:07 7.0 °F 6.1 °F 1013.4 in WSW 17.7 mph 37.0 mph 94 % 0.5 in
06:13 7.1 °F 6.2 °F 1013.4 in WSW 30.6 mph 45.1 mph 94 % 0.5 in
06:19 7.1 °F 6.2 °F 1013.4 in SW 20.9 mph 35.4 mph 94 % 0.3 in
06:25 7.1 °F 6.4 °F 1013.1 in WSW 22.7 mph 41.8 mph 95 % 0.3 in
06:31 7.1 °F 6.4 °F 1013.1 in WSW 17.7 mph 29.0 mph 95 % 0.3 in
06:37 7.1 °F 6.4 °F 1013.1 in SSW 22.7 mph 38.6 mph 95 % 0.3 in
06:43 7.1 °F 6.4 °F 1013.4 in WSW 16.3 mph 30.6 mph 95 % 0.3 in
06:49 7.1 °F 6.4 °F 1013.4 in SSW 28.8 mph 30.6 mph 95 % 0.3 in
06:55 7.1 °F 6.4 °F 1013.1 in SW 30.6 mph 32.2 mph 95 % 0.0 in
07:01 7.2 °F 6.5 °F 1013.1 in SW 20.9 mph 29.0 mph 95 % 0.0 in
07:14 7.3 °F 6.6 °F 1013.1 in WSW 14.3 mph 32.2 mph 95 % 0.0 in
07:20 7.3 °F 6.6 °F 1013.1 in SW 27.4 mph 40.2 mph 95 % 0.0 in
07:26 7.3 °F 6.6 °F 1013.1 in WSW 35.2 mph 43.4 mph 95 % 0.0 in
07:32 7.3 °F 6.6 °F 1012.8 in SW 13.0 mph 46.7 mph 95 % 0.3 in
07:38 7.4 °F 6.7 °F 1012.8 in West 24.1 mph 40.2 mph 95 % 0.3 in
07:44 7.4 °F 6.7 °F 1012.8 in WSW 28.8 mph 49.9 mph 95 % 0.3 in
07:50 7.5 °F 6.8 °F 1012.4 in SW 22.7 mph 41.8 mph 95 % 0.5 in
07:56 7.6 °F 6.9 °F 1012.8 in West 27.4 mph 37.0 mph 95 % 0.5 in
08:02 7.6 °F 6.9 °F 1012.8 in SW 16.3 mph 51.5 mph 95 % 0.5 in
08:08 7.6 °F 6.9 °F 1012.8 in SW 27.4 mph 37.0 mph 95 % 0.5 in
08:14 7.6 °F 6.9 °F 1012.8 in SW 27.4 mph 32.2 mph 95 % 0.8 in
08:20 7.7 °F 6.9 °F 1012.8 in WSW 24.1 mph 45.1 mph 95 % 0.8 in
08:26 7.7 °F 6.9 °F 1012.8 in WNW 20.9 mph 46.7 mph 95 % 0.8 in
08:32 7.7 °F 6.9 °F 1012.8 in WSW 20.9 mph 29.0 mph 95 % 0.8 in
08:38 7.7 °F 6.9 °F 1012.8 in WSW 25.9 mph 35.4 mph 95 % 0.8 in
08:44 7.7 °F 7.1 °F 1012.8 in SW 22.7 mph 43.4 mph 96 % 0.8 in
08:50 7.7 °F 7.1 °F 1012.8 in South 16.3 mph 43.4 mph 96 % 0.5 in
08:56 7.7 °F 7.1 °F 1012.8 in WSW 25.9 mph 38.6 mph 96 % 0.8 in
09:02 7.8 °F 7.2 °F 1012.8 in SSW 14.3 mph 30.6 mph 96 % 1.0 in
09:08 7.8 °F 7.2 °F 1012.8 in SW 19.5 mph 37.0 mph 96 % 1.0 in
09:14 7.8 °F 7.2 °F 1012.8 in SSW 28.8 mph 38.6 mph 96 % 1.0 in
09:20 7.9 °F 7.1 °F 1012.8 in WSW 30.6 mph 38.6 mph 95 % 1.0 in
09:26 7.9 °F 7.3 °F 1013.1 in WSW 25.9 mph 32.2 mph 96 % 1.0 in
09:32 7.9 °F 7.3 °F 1013.1 in WSW 16.3 mph 25.7 mph 96 % 1.0 in
09:38 7.9 °F 7.3 °F 1013.1 in SW 19.5 mph 32.2 mph 96 % 1.0 in
09:44 8.0 °F 7.4 °F 1013.1 in WSW 20.9 mph 25.7 mph 96 % 0.8 in
09:50 8.1 °F 7.5 °F 1013.1 in WSW 32.0 mph 32.2 mph 96 % 0.8 in
09:56 8.1 °F 7.5 °F 1013.1 in West 24.1 mph 29.0 mph 96 % 0.5 in
10:02 8.1 °F 7.5 °F 1013.1 in SW 27.4 mph 32.2 mph 96 % 0.5 in
10:08 8.1 °F 7.5 °F 1013.1 in SW 11.1 mph 37.0 mph 96 % 0.5 in
10:14 8.2 °F 7.6 °F 1013.1 in WSW 17.7 mph 41.8 mph 96 % 0.5 in
10:20 8.2 °F 7.6 °F 1013.1 in WSW 16.3 mph 37.0 mph 96 % 0.5 in
10:26 8.2 °F 7.6 °F 1013.1 in WSW 13.0 mph 25.7 mph 96 % 0.5 in
10:32 8.3 °F 7.7 °F 1013.1 in West 16.3 mph 29.0 mph 96 % 0.3 in
10:38 8.3 °F 7.7 °F 1013.1 in WSW 17.7 mph 43.4 mph 96 % 0.5 in
10:44 8.4 °F 7.8 °F 1013.1 in SW 25.9 mph 25.9 mph 96 % 0.5 in
10:50 8.4 °F 7.8 °F 1013.1 in West 6.4 mph 30.6 mph 96 % 0.5 in
10:56 8.4 °F 7.8 °F 1013.1 in WSW 35.2 mph 35.4 mph 96 % 0.5 in
11:02 8.5 °F 7.9 °F 1013.1 in SW 6.4 mph 33.8 mph 96 % 0.5 in
11:08 8.6 °F 8.0 °F 1013.1 in West 20.9 mph 32.2 mph 96 % 0.5 in
11:14 8.6 °F 8.0 °F 1013.1 in SW 22.7 mph 33.8 mph 96 % 0.5 in
11:20 8.7 °F 8.1 °F 1013.4 in SW 11.1 mph 30.6 mph 96 % 0.5 in
11:26 8.7 °F 8.1 °F 1013.1 in SSW 22.7 mph 38.6 mph 96 % 0.5 in
11:32 8.7 °F 8.1 °F 1013.1 in West 19.5 mph 40.2 mph 96 % 0.8 in
11:38 8.7 °F 8.1 °F 1013.1 in WSW 14.3 mph 29.0 mph 96 % 0.8 in
11:44 8.8 °F 8.2 °F 1013.1 in WSW 22.7 mph 29.0 mph 96 % 0.8 in
11:50 8.7 °F 8.1 °F 1013.1 in West 17.7 mph 27.4 mph 96 % 1.3 in
11:56 8.8 °F 8.2 °F 1012.8 in WSW 33.8 mph 43.4 mph 96 % 1.3 in
12:02 8.8 °F 8.2 °F 1012.8 in SW 24.1 mph 33.8 mph 96 % 1.3 in
12:08 8.8 °F 8.2 °F 1012.8 in SW 16.3 mph 38.6 mph 96 % 1.5 in
12:14 8.8 °F 8.2 °F 1012.8 in WSW 32.0 mph 32.2 mph 96 % 1.5 in
12:20 8.8 °F 8.2 °F 1012.8 in WSW 27.4 mph 32.2 mph 96 % 1.5 in
12:26 8.8 °F 8.2 °F 1012.4 in WSW 13.0 mph 27.4 mph 96 % 1.5 in
12:32 8.9 °F 8.3 °F 1012.4 in WNW 22.7 mph 25.7 mph 96 % 1.5 in
12:38 8.9 °F 8.3 °F 1012.4 in WSW 24.1 mph 37.0 mph 96 % 1.5 in
12:44 8.9 °F 8.3 °F 1012.4 in SW 16.3 mph 32.2 mph 96 % 1.5 in
12:50 9.0 °F 8.4 °F 1012.1 in SW 22.7 mph 29.0 mph 96 % 1.0 in
12:56 9.1 °F 8.5 °F 1012.1 in WSW 19.5 mph 32.2 mph 96 % 1.3 in
13:02 9.1 °F 8.5 °F 1012.1 in WSW 22.7 mph 37.0 mph 96 % 1.0 in
13:08 9.1 °F 8.5 °F 1011.7 in SSW 14.3 mph 25.7 mph 96 % 1.0 in
13:14 9.2 °F 8.6 °F 1011.7 in West 22.7 mph 33.8 mph 96 % 1.0 in
13:20 9.2 °F 8.6 °F 1011.7 in SW 30.6 mph 38.6 mph 96 % 1.0 in
13:26 9.3 °F 8.7 °F 1011.7 in WSW 14.3 mph 43.4 mph 96 % 1.0 in
13:32 9.3 °F 8.7 °F 1011.4 in WSW 28.8 mph 37.0 mph 96 % 0.8 in
13:38 9.3 °F 8.5 °F 1011.4 in WSW 27.4 mph 40.2 mph 95 % 0.8 in
13:44 9.4 °F 8.6 °F 1011.7 in WNW 20.9 mph 45.1 mph 95 % 0.8 in
13:50 9.4 °F 8.6 °F 1011.7 in WSW 20.9 mph 41.8 mph 95 % 0.8 in
13:56 9.4 °F 8.8 °F 1011.4 in WSW 24.1 mph 35.4 mph 96 % 0.5 in
14:02 9.4 °F 8.6 °F 1011.4 in West 35.2 mph 48.3 mph 95 % 1.0 in
14:08 9.4 °F 8.6 °F 1011.4 in WSW 27.4 mph 35.4 mph 95 % 0.8 in
14:14 9.5 °F 8.7 °F 1011.1 in SW 22.7 mph 25.7 mph 95 % 1.0 in
14:20 9.5 °F 8.7 °F 1010.7 in West 28.8 mph 45.1 mph 95 % 0.8 in
14:26 9.6 °F 8.8 °F 1010.7 in SW 20.9 mph 40.2 mph 95 % 0.8 in
14:32 9.6 °F 8.8 °F 1010.7 in SW 25.9 mph 30.6 mph 95 % 0.8 in
14:38 9.7 °F 8.9 °F 1010.7 in West 9.7 mph 40.2 mph 95 % 0.5 in
14:44 9.7 °F 8.9 °F 1010.7 in West 19.5 mph 37.0 mph 95 % 0.8 in
14:50 9.7 °F 8.9 °F 1010.7 in WSW 20.9 mph 33.8 mph 95 % 0.8 in
14:56 9.8 °F 9.0 °F 1010.7 in West 9.7 mph 30.6 mph 95 % 0.8 in
15:02 9.8 °F 9.0 °F 1010.7 in West 17.7 mph 30.6 mph 95 % 0.5 in
15:08 9.8 °F 9.0 °F 1010.7 in West 13.0 mph 35.4 mph 95 % 0.5 in
15:14 9.8 °F 9.0 °F 1010.4 in WSW 14.3 mph 30.6 mph 95 % 0.3 in
15:20 9.8 °F 9.0 °F 1010.7 in West 13.0 mph 29.0 mph 95 % 0.5 in
15:26 9.8 °F 9.2 °F 1010.7 in WSW 17.7 mph 30.6 mph 96 % 0.5 in
15:32 9.8 °F 9.2 °F 1010.7 in WSW 14.3 mph 35.4 mph 96 % 0.5 in
15:38 9.8 °F 9.2 °F 1010.4 in WSW 22.7 mph 32.2 mph 96 % 0.5 in
15:44 9.8 °F 9.2 °F 1010.4 in WSW 14.3 mph 40.2 mph 96 % 0.3 in
15:50 9.8 °F 9.2 °F 1010.4 in SW 22.7 mph 45.1 mph 96 % 0.3 in
15:56 9.8 °F 9.2 °F 1010.4 in West 16.3 mph 35.4 mph 96 % 0.5 in
16:02 9.8 °F 9.2 °F 1010.4 in WSW 16.3 mph 22.5 mph 96 % 0.5 in
16:08 9.9 °F 9.3 °F 1010.0 in WSW 25.9 mph 38.6 mph 96 % 0.5 in
16:14 9.9 °F 9.3 °F 1010.4 in SW 33.8 mph 40.2 mph 96 % 0.5 in
16:20 9.9 °F 9.3 °F 1010.4 in WSW 14.3 mph 30.6 mph 96 % 0.5 in
16:26 9.9 °F 9.3 °F 1010.0 in WSW 30.6 mph 37.0 mph 96 % 0.5 in
16:32 9.9 °F 9.3 °F 1010.4 in West 14.3 mph 33.8 mph 96 % 0.5 in
16:38 9.9 °F 9.3 °F 1010.4 in SW 16.3 mph 32.2 mph 96 % 0.5 in
16:44 9.9 °F 9.3 °F 1010.4 in WSW 16.3 mph 37.0 mph 96 % 0.5 in
16:51 9.9 °F 9.3 °F 1010.4 in WSW 19.5 mph 30.6 mph 96 % 0.5 in
16:56 10.0 °F 9.4 °F 1010.4 in WSW 20.9 mph 43.4 mph 96 % 0.5 in
17:02 10.1 °F 9.5 °F 1010.4 in WSW 17.7 mph 33.8 mph 96 % 0.5 in
17:08 10.1 °F 9.5 °F 1010.4 in WSW 24.1 mph 35.4 mph 96 % 0.5 in
17:14 10.1 °F 9.5 °F 1010.4 in WSW 22.7 mph 33.8 mph 96 % 0.5 in
17:21 10.1 °F 9.5 °F 1010.4 in SW 17.7 mph 38.6 mph 96 % 0.3 in
17:27 10.1 °F 9.5 °F 1010.4 in WSW 25.9 mph 38.6 mph 96 % 0.3 in
17:33 10.2 °F 9.6 °F 1010.4 in West 16.3 mph 24.1 mph 96 % 0.5 in
17:39 10.2 °F 9.6 °F 1010.0 in SW 17.7 mph 25.7 mph 96 % 0.5 in
17:45 10.2 °F 9.6 °F 1010.0 in WSW 20.9 mph 30.6 mph 96 % 0.5 in
17:51 10.2 °F 9.6 °F 1010.0 in West 19.5 mph 33.8 mph 96 % 0.5 in
17:57 10.2 °F 9.6 °F 1010.0 in WSW 16.3 mph 29.0 mph 96 % 0.3 in
18:03 10.2 °F 9.6 °F 1010.0 in WSW 16.3 mph 24.1 mph 96 % 0.5 in
18:09 10.2 °F 9.6 °F 1010.0 in WSW 30.6 mph 33.8 mph 96 % 0.5 in
18:15 10.2 °F 9.6 °F 1010.4 in WSW 13.0 mph 22.5 mph 96 % 0.5 in
18:21 10.2 °F 9.6 °F 1010.0 in WSW 28.8 mph 32.2 mph 96 % 0.5 in
18:27 10.3 °F 9.7 °F 1010.0 in SW 19.5 mph 27.4 mph 96 % 0.5 in
18:33 10.2 °F 9.6 °F 1010.0 in WSW 20.9 mph 22.5 mph 96 % 0.5 in
18:39 10.3 °F 9.7 °F 1010.0 in West 11.1 mph 32.2 mph 96 % 0.5 in
18:45 10.3 °F 9.7 °F 1010.0 in SW 22.7 mph 32.2 mph 96 % 0.5 in
18:51 10.3 °F 9.8 °F 1010.0 in SW 25.9 mph 40.2 mph 97 % 0.5 in
18:57 10.3 °F 9.7 °F 1010.0 in WSW 20.9 mph 30.6 mph 96 % 0.5 in
19:03 10.3 °F 9.8 °F 1010.0 in SW 27.4 mph 33.8 mph 97 % 0.5 in
19:09 10.3 °F 9.8 °F 1010.0 in WSW 32.0 mph 32.2 mph 97 % 0.5 in
19:15 10.3 °F 9.8 °F 1010.0 in WSW 25.9 mph 40.2 mph 97 % 0.5 in
19:21 10.3 °F 9.8 °F 1010.0 in WSW 14.3 mph 27.4 mph 97 % 0.5 in
19:27 10.3 °F 9.8 °F 1010.0 in WSW 19.5 mph 30.6 mph 97 % 0.5 in
19:33 10.3 °F 9.8 °F 1010.0 in West 27.4 mph 32.2 mph 97 % 0.5 in
19:39 10.3 °F 9.8 °F 1010.0 in West 22.7 mph 27.4 mph 97 % 0.5 in
19:45 10.4 °F 9.9 °F 1010.4 in West 20.9 mph 37.0 mph 97 % 0.5 in
19:51 10.4 °F 9.8 °F 1010.4 in SW 28.8 mph 38.6 mph 96 % 0.5 in
19:57 10.6 °F 10.0 °F 1010.4 in WSW 19.5 mph 35.4 mph 96 % 0.5 in
20:03 10.6 °F 9.8 °F 1010.4 in SW 27.4 mph 33.8 mph 95 % 0.5 in
20:09 10.6 °F 9.7 °F 1010.4 in WSW 27.4 mph 38.6 mph 94 % 0.5 in
20:15 10.6 °F 9.5 °F 1010.4 in WSW 22.7 mph 30.6 mph 93 % 0.5 in
20:21 10.6 °F 9.5 °F 1010.4 in WSW 17.7 mph 32.2 mph 93 % 0.5 in
20:27 10.7 °F 9.5 °F 1010.4 in WSW 14.3 mph 45.1 mph 92 % 0.5 in
20:33 10.7 °F 9.3 °F 1010.4 in West 19.5 mph 33.8 mph 91 % 0.5 in
20:39 10.7 °F 9.3 °F 1010.7 in West 20.9 mph 35.4 mph 91 % 0.3 in
20:45 10.7 °F 9.3 °F 1010.7 in West 11.1 mph 30.6 mph 91 % 0.3 in
20:51 10.7 °F 9.1 °F 1010.7 in West 28.8 mph 35.4 mph 90 % 0.3 in
20:57 10.7 °F 9.1 °F 1010.7 in WSW 19.5 mph 30.6 mph 90 % 0.3 in
21:03 10.6 °F 9.0 °F 1010.7 in West 20.9 mph 35.4 mph 90 % 0.3 in
21:09 10.5 °F 8.8 °F 1011.1 in WSW 22.7 mph 37.0 mph 89 % 0.0 in
21:15 10.4 °F 8.5 °F 1011.1 in West 22.7 mph 37.0 mph 88 % 0.0 in
21:21 10.4 °F 8.3 °F 1011.4 in West 28.8 mph 33.8 mph 87 % 0.0 in
21:27 10.3 °F 8.2 °F 1011.4 in West 11.1 mph 33.8 mph 87 % 0.0 in
21:33 10.2 °F 8.1 °F 1011.4 in West 9.7 mph 20.9 mph 87 % 0.0 in
21:39 10.2 °F 8.1 °F 1011.7 in WSW 27.4 mph 30.6 mph 87 % 0.0 in
21:45 10.1 °F 8.0 °F 1011.7 in West 13.0 mph 20.9 mph 87 % 0.0 in
21:51 9.9 °F 8.0 °F 1011.7 in West 11.1 mph 22.5 mph 88 % 0.0 in
21:57 9.8 °F 7.9 °F 1011.7 in WSW 19.5 mph 27.4 mph 88 % 0.0 in
22:03 9.7 °F 8.0 °F 1011.7 in WSW 16.3 mph 19.3 mph 89 % 0.0 in
22:09 9.6 °F 8.0 °F 1011.7 in West 14.3 mph 22.5 mph 90 % 0.0 in
22:15 9.6 °F 8.0 °F 1011.7 in WSW 19.5 mph 19.5 mph 90 % 0.0 in
22:21 9.6 °F 7.9 °F 1011.7 in West 9.7 mph 20.9 mph 89 % 0.0 in
22:27 9.5 °F 7.8 °F 1011.7 in WSW 20.9 mph 20.9 mph 89 % 0.0 in
22:33 9.6 °F 7.9 °F 1012.1 in West 17.7 mph 19.3 mph 89 % 0.0 in
22:39 9.6 °F 7.9 °F 1012.1 in WSW 9.7 mph 20.9 mph 89 % 0.0 in
22:45 9.6 °F 7.9 °F 1012.1 in West 14.3 mph 17.7 mph 89 % 0.0 in
22:51 9.5 °F 7.8 °F 1012.1 in West 13.0 mph 22.5 mph 89 % 0.0 in
22:57 9.5 °F 7.6 °F 1012.1 in West 17.7 mph 29.0 mph 88 % 0.0 in
23:03 9.5 °F 7.6 °F 1012.1 in WSW 24.1 mph 27.4 mph 88 % 0.0 in
23:09 9.6 °F 7.5 °F 1012.1 in West 16.3 mph 25.7 mph 87 % 0.0 in
23:15 9.6 °F 7.4 °F 1012.4 in West 27.4 mph 35.4 mph 86 % 0.0 in
23:21 9.5 °F 7.1 °F 1012.4 in WNW 25.9 mph 33.8 mph 85 % 0.0 in
23:27 9.4 °F 7.0 °F 1012.4 in WNW 11.1 mph 22.5 mph 85 % 0.0 in
23:33 9.3 °F 6.9 °F 1012.4 in West 9.7 mph 17.7 mph 85 % 0.0 in
23:39 9.3 °F 7.1 °F 1012.4 in West 6.4 mph 14.5 mph 86 % 0.0 in
23:45 9.2 °F 7.0 °F 1012.4 in WSW 16.3 mph 17.7 mph 86 % 0.0 in
23:51 9.2 °F 7.0 °F 1012.8 in West 19.5 mph 24.1 mph 86 % 0.0 in
23:57 9.1 °F 6.9 °F 1012.8 in West 19.5 mph 25.7 mph 86 % 0.0 in
Meteo18
Compliments of Weather Underground - 4 mb

Script developed by  Jim McMurry - jmcmurry@mwt.net Adapted for the template by  Wim van der Kuil - Leuven-Template.eu

You find our weather info also at:

European Weather Network

Weather Underground

Equipment we use:

Weather-station
Davis Vue

Weather-program
Meteobridge

Weather-server
Raspberry PI 2 B+

Provider
1 and 1

Davis Vue

Meteobridge

Raspberry PI 2 B+

1 and 1